Location: *
(38.4303°S, 157.0822°W)
Time: 15:10:56
(UTC+00:00)

Helios 1B rocket - Pass Details

Date: 21 May 2024
Orbit: 533 x 545 km, 98.2° (Epoch: 14 June)

Event Time Altitude Azimuth Distance (km) Brightness Sun altitude
Rises 15:44:04 0° 39° (NE) 2,681 6.6 -20.3°
Reaches altitude 10° 15:46:22 10° 51° (NE) 1,800 5.8 -19.9°
Maximum altitude 15:49:42 28° 110° (ESE) 1,048 4.3 -19.2°
Drops below altitude 10° 15:53:05 10° 169° (S) 1,829 5.0 -18.6°
Sets 15:55:26 0° 180° (S) 2,733 5.8 -18.1°
